#timestamp,LO_Frequency,Hit,StdDev 
1695546015.6,286046996.5,Y
1695546035.4,286047001.2,P
1695546055.3,286047001.2,N
1695546075.1,286047001.1,N
1695546076.0,286047001.1,N
1695546095.8,286047000.3,N
1695546115.7,286047001.2,N
1695546135.5,286046998.7,N
1695546155.4,286046998.9,N
1695546175.2,286046999.6,N
1695546195.0,286046997.4,N
1695546195.9,286046997.4,N
1695546215.8,286046997.2,N
1695546235.6,286046997.4,N
1695546255.4,286046997.7,N
1695546275.3,286046997.7,N
1695546295.1,286046997.6,N
1695546315.9,286046997.7,N
1695546335.7,286046997.6,N
1695546355.5,286046996.7,N
1695546375.4,286046996.6,N
1695546395.2,286046996.8,N
1695546415.0,286046997.4,N
1695546415.9,286046997.4,N
1695546435.8,286046994.9,Y
1695546455.6,286046997.0,P
1695546475.5,286046996.5,P
1695546495.3,286046999.4,N
1695546515.1,286046999.5,N
1695546535.9,286046996.9,N
1695546555.7,286046997.5,N
1695546575.6,286046996.8,N
1695546595.4,286046999.2,N
1695546615.2,286046999.3,N
1695546635.1,286046999.2,N
1695546636.0,286046999.2,N
1695546655.8,286046997.0,N
1695546675.6,286046996.9,N
1695546695.5,286046999.2,N
1695546715.3,286046999.0,N
1695546735.2,286046997.2,N
1695546755.9,286046997.9,N
1695546775.7,286046997.5,N
1695546795.6,286046997.8,N
1695546815.4,286046999.4,N
1695546835.2,286046999.2,N
1695546855.1,286046996.7,Y
1695546856.0,286046996.7,P
1695546875.8,286047000.3,N
1695546895.7,286047000.7,N
1695546915.5,286047001.1,N
1695546935.3,286046998.2,N
1695546955.2,286047000.7,N
1695546975.0,286047000.8,N
1695546975.9,286047000.8,N
1695546995.8,286047001.1,N
1695547015.6,286047000.8,N
1695547035.4,286047001.1,N
1695547055.3,286046998.5,N
1695547075.1,286046999.6,N
1695547095.9,286046999.5,N
1695547115.7,286046996.5,N
1695547135.5,286046997.0,N
1695547155.4,286046997.4,N
1695547175.2,286046994.9,Y
1695547195.0,286046997.0,P
1695547195.9,286046997.0,N
1695547215.8,286046996.6,P
1695547235.6,286046999.1,N
1695547255.5,286046999.4,N
1695547275.3,286046996.6,N
1695547295.1,286046996.6,N
1695547315.9,286046999.5,N
1695547335.7,286046998.6,N
1695547355.5,286046999.6,N
1695547375.4,286046998.9,N
1695547395.2,286046998.9,N
1695547415.1,286046999.6,N
1695547416.0,286046999.6,N
1695547435.8,286046997.3,N
1695547455.6,286046997.0,N
1695547475.5,286046999.5,N
1695547495.3,286046998.8,N
1695547515.1,286046999.5,N
1695547535.9,286046998.3,N
1695547555.7,286046999.2,N
1695547575.6,286046996.7,N
1695547595.4,286046996.7,N
1695547615.2,286046996.6,N
1695547635.1,286046999.5,N
1695547636.0,286046999.5,N
1695547655.8,286046997.4,N
1695547675.6,286046997.2,N
1695547695.5,286046997.2,N
1695547715.3,286046996.7,N
1695547735.2,286046999.6,N
1695547755.9,286046997.1,N
1695547775.7,286046997.0,N
1695547795.6,286046999.4,N
1695547815.4,286046999.5,N
1695547835.2,286046996.9,N
1695547855.1,286046996.9,N
1695547856.0,286046996.9,N
1695547875.8,286046997.2,N
1695547895.7,286046996.7,N
1695547915.5,286046999.2,N
1695547935.4,286046999.5,N
1695547955.2,286046996.7,N
1695547975.0,286046997.5,N
1695547975.9,286046997.5,N
1695547995.8,286046997.2,N
1695548015.6,286046997.8,N
1695548035.4,286046996.6,Y
1695548055.3,286047000.7,P
1695548075.1,286047000.0,N
1695548095.9,286046998.1,N
1695548115.7,286046999.2,N
1695548135.0,286046997.0,N
1695548135.9,286046997.0,N
1695548155.8,286046997.1,N
1695548175.6,286046998.8,N
1695548195.4,286046999.3,N
1695548215.3,286046998.9,N
1695548235.1,286046997.0,N
1695548255.8,286046996.6,N
1695548275.7,286047001.0,N
1695548295.5,286047000.7,N
1695548315.4,286047000.6,N
1695548335.2,286046999.9,N
1695548355.0,286046998.1,N
1695548355.9,286046998.1,N
1695548375.8,286047001.2,N
1695548395.6,286047000.8,N
1695548415.4,286046998.4,N
1695548435.3,286046998.5,N
1695548455.1,286046998.9,N
1695548475.9,286046996.6,N
1695548495.7,286046996.5,N
1695548515.5,286046998.4,N
1695548535.4,286046999.0,N
1695548555.2,286046996.8,N
1695548575.1,286046996.7,N
1695548576.0,286046996.7,N
1695548595.8,286046998.4,N
1695548615.6,286046998.4,N
1695548635.5,286046998.8,N
1695548655.3,286046999.4,N
1695548675.1,286046998.8,N
1695548695.9,286046999.3,N
1695548715.7,286046998.7,N
1695548735.6,286046999.1,N
1695548755.4,286046998.4,N
1695548775.2,286046998.1,N
1695548795.1,286046998.9,N
1695548796.0,286046998.9,N
1695548815.8,286046998.7,N
1695548835.6,286046999.4,N
1695548855.5,286046996.6,N
1695548875.3,286046999.2,N
1695548895.2,286046999.4,N
1695548915.9,286046998.7,N
1695548935.7,286046998.2,N
1695548955.6,286047000.3,N
1695548975.4,286046999.7,N
1695548995.2,286046999.9,N
1695549015.1,286046999.8,N
1695549016.0,286046999.8,N
1695549035.8,286047001.5,N
1695549055.7,286047004.3,Y
1695549075.5,286047005.9,P
1695549095.3,286047003.0,N
1695549115.2,286047003.5,N
1695549135.0,286047003.4,N
1695549135.9,286047003.4,N
1695549155.8,286047003.0,N
1695549175.6,286047003.4,N
1695549195.5,286047005.7,Y
1695549215.3,286047002.3,P
1695549235.1,286047004.4,P
1695549255.9,286047004.0,P
1695549275.7,286047001.7,N
1695549295.6,286047003.5,Y
1695549315.4,286047000.1,P
1695549335.2,286046999.8,N
1695549355.1,286046999.7,N
1695549356.0,286046999.7,N
1695549375.8,286046999.8,N
1695549395.7,286047001.9,N
1695549415.5,286047002.3,N
1695549435.3,286047002.6,N
1695549455.2,286047002.0,N
1695549475.0,286047001.9,N
1695549475.9,286047001.9,N
1695549495.8,286047004.0,Y
1695549515.6,286047002.4,P
1695549535.4,286047002.7,P
1695549555.3,286047002.3,P
1695549575.1,286047002.3,Y
1695549595.9,286047000.7,P
